Weather Roundup
Issued by NWS Chicago, IL

Home | Current Version | Previous Version | Graphics & Text | Print | Product List | Glossary On
Versions: 1 2 3 4 5 6 7 8 9 10 11 12 13 14 15 16 17 18 19 20 21 22 23 24 25 26 27 28 29 30 31 32 33 34 35 36 37 38 39 40 41 42 43 44 45 46 47 48 49 50
227
NZUS59 KLOT 290803
HRRLOT

CHICAGO AREA WEATHER ROUNDUP
NATIONAL WEATHER SERVICE CHICAGO/ROMEOVILLE IL
300 AM CDT THU SEP 29 2016

NOTE: "FAIR" INDICATES FEW OR NO CLOUDS BELOW 12,000 FEET WITH NO
SIGNIFICANT WEATHER AND/OR OBSTRUCTIONS TO VISIBILITY.

* THESE STATIONS ARE NOT UNDER NWS QUALITY CONTROL. THEY ALSO MAY NOT
  REPORT WEATHER SUCH AS PRECIPITATION OR FOG.

ILZ005-006-012>014-019>023-290900-
NORTHEAST ILLINOIS

CITY           SKY/WX    TMP DP  RH WIND       PRES   REMARKS
OHARE          CLOUDY    60  55  83 N18G31    30.07S
MIDWAY         CLOUDY    61  56  83 N15       30.05S
AURORA         CLEAR     58  53  84 N14       30.10R
LANSING*       LGT RAIN  60  58  93 NE10G17   30.04R
WAUKEGAN       PTCLDY    60  56  86 N13G22    30.10S
DUPAGE AIRPORT PTCLDY    58  53  84 N17G24    30.09R
WHEELING       CLOUDY    60  55  83 N14       30.09F
KANKAKEE*      LGT RAIN  57  56  94 N9        30.03S
NORTHERLY ISL    N/A     62  55  77 NE16        N/A
$$

WIZ051-052-058>065-066-070>072-290900-
SOUTHEAST WISCONSIN

CITY           SKY/WX    TMP DP  RH WIND       PRES   REMARKS
MILWAUKEE      MOCLDY    60  56  86 N22G31    30.15S
KENOSHA*       PTCLDY    59  56  89 N14G25    30.12F
RACINE*        PTCLDY    57  55  93 N17G25    30.14S
WAUKESHA       CLOUDY    55  54  94 N14G22    30.19R
WEST BEND      CLOUDY    57  54  88 N10G18    30.21R
$$

INZ001>003-010>013-019-020-290900-
NORTHWEST INDIANA

CITY           SKY/WX    TMP DP  RH WIND       PRES   REMARKS
GARY*          DRIZZLE   63  59  87 NE13G22   30.05R
MICHIGAN CITY* NOT AVBL
RENSSELAER*    NOT AVBL
VALPARAISO     CLOUDY    57  54  89 N10       30.03S
$$

LMZ740>746-290900-
SOUTHERN LAKE MICHIGAN

STATION/POSITION TIME  SKY/WX   TEMP WIND        PRES    VSBY
                                AIR  DIR/SP/G
                 (UTC)          (F)  (DEG/KT/KT) (MB)    (MI)
HARRISON CRIB    0740            65   40/ 22/ 24   N/A
BURNHAM HARBOR   0800            63   40/ 19/ 22   N/A
CALUMET HARBOR   0730            63   20/ 15/ 24 1016.8R
BURNS HARBOR     0740            62   50/ 21/ 27 1016.9R
MICHIGAN CITY    0740            60   20/ 24/ 27   N/A
$$

ABBREVIATIONS USED IN REMARKS
   TC - TEMPERATURE IN CELSIUS
  WCI - WIND CHILL INDEX
   HX - HEAT INDEX
  VSB - VISIBILITY
$$




USA.gov is the U.S. government's official web portal to all federal, state and local government web resources and services.